Regional Weather Roundup
Issued by NWS Portland, ME

Home | Current Version | Previous Version | Text Only | Print | Product List | Glossary On
Versions: 1 2 3 4 5 6 7 8 9 10 11 12 13 14 15 16 17 18 19 20 21 22 23 24 25 26 27 28 29 30 31 32 33 34 35 36 37 38 39 40 41 42 43 44 45 46 47 48 49 50
000
ASUS41 KGYX 250310
RWRGYX
WEATHER ROUNDUP FOR MAINE AND NEW HAMPSHIRE
NATIONAL WEATHER SERVICE GRAY ME
1100 PM EDT FRI OCT 24 2014

MEZ002-005-006-010-012-015-018-020-021-024-026-027-029-250400-
MAINE

CITY           SKY/WX    TMP DP  RH WIND       PRES   REMARKS
PORTLAND       CLOUDY    51  43  74 NW12      29.72S
SANFORD        CLOUDY    46  39  76 W5        29.73S
BAR HARBOR     CLOUDY    43  43 100 NW6       29.64S
WISCASSET      CLOUDY    48  42  80 CALM      29.70F
ROCKLAND       CLOUDY    45  43  93 NW5       29.67R
FRYEBURG       CLOUDY    47  42  83 CALM      29.72F
LEWISTONAUBURN CLOUDY    48  39  71 NW6       29.71S
AUGUSTA        CLOUDY    47  40  76 NW12      29.69F
WATERVILLE     CLOUDY    46  37  71 N9        29.66F
BANGOR         CLOUDY    44  41  89 N12       29.67F
GREENVILLE       N/A     42  38  85 NW12G21   29.65
MILLINOCKET    LGT RAIN  44  41  89 N9        29.67F
HOULTON        LGT RAIN  41  40  96 N8        29.63F FOG
PRESQUE ISLE   CLOUDY    43  37  81 N13       29.66S
FRENCHVILLE    LGT RAIN  38  36  92 N10       29.68F
CARIBOU        LGT RAIN  41  39  93 N10       29.66S
$$

NHZ002-005-008-009-011-012-014-250400-
NEW HAMPSHIRE

CITY           SKY/WX    TMP DP  RH WIND       PRES   REMARKS
PORTSMOUTH     CLOUDY    48  43  81 W3        29.72S
ROCHESTER      MOCLDY    47  41  80 NW5       29.72S
NASHUA         CLEAR     47  42  82 NW8       29.75S
MANCHESTER     PTCLDY    47  39  74 NW5       29.73S
CONCORD        CLOUDY    47  41  80 NW7       29.74S
LACONIA        CLOUDY    48  39  71 W5        29.72S
PLYMOUTH       FAIR      46  44  91 W5        29.74S
BERLIN         CLOUDY    41  40  96 CALM      29.75F
WHITEFIELD     CLOUDY    43  40  89 CALM      29.78F
JAFFREY        CLOUDY    46  40  79 VRB6G22   29.76S
LEBANON        CLOUDY    47  39  74 N6        29.79S
MT WASHINGTON  MOCLDY    27  25  93 N40G56      N/A  WCI   8
$$

VTZ005-007-008-250400-
VERMONT

CITY           SKY/WX    TMP DP  RH WIND       PRES   REMARKS
ST JOHNSBURY     N/A     43  40  89 MISG      29.79S
MONTPELIER     MOCLDY    42  38  85 CALM      29.85R
BURLINGTON     CLEAR     41  38  89 E5        29.83F
$$

MAZ007-012-024-CTZ003-RIZ002-NYZ038-NYZ072-250400-
SOUTHERN NEW ENGLAND AND NY

CITY           SKY/WX    TMP DP  RH WIND       PRES   REMARKS
BOSTON         PTCLDY    47  41  80 NW9       29.74S
WORCESTER      PTCLDY    45  40  82 NW12      29.74S
NANTUCKET      CLOUDY    52  45  76 NW9       29.73R
PROVIDENCE     CLOUDY    51  41  68 NW7       29.76R
HARTFORD       PTCLDY    50  42  74 N3        29.78R
ALBANY         CLOUDY    47  44  90 N5        29.87S
NEW YORK CITY  PTCLDY    60  43  53 NW12      29.83R
$$

ANZ081-ANZ082-ANZ150-NHZ014-MEZ023>029-250400-
COASTAL MARINE OBSERVATIONS

STATION/POSITION TIME  TEMP    WIND        PRES    WAVE
                       AIR SEA DIR/SP/G            HT/PER
                 (UTC) (F)     (DEG/KT/KT) (MB)    (FT/S)
MOUNT DESERT ROC 0300   46                 1002.6F
MATINICUS ROCK   0300          360/ 22/ 24 1003.5S
PORTLAND WX BUOY 0250   51 53  330/ 14/ 17 1005.5F   4/10
WELLS            0200   50 51  300/  3/  4 1005.5R
ISLE OF SHOALS   0300   49     300/ 12/ 13 1005.9R
JEFFREYS LEDGE   0221      56                N/A     5/11
CASHES LEDGE BUO 0250   50 54  330/ 19/ 23 1003.6F   6/ 6
$$

.............KEY..............
   WCI - WIND CHILL
   TC  - TEMPERATURE IN CELSIUS
   VSB - VISIBILITY IN MILES
   HX  - HEAT INDEX
   FAIR- INDICATES FEW OR NO CLOUDS BELOW 12,000 FT, WITH NO
         SIGNIFICANT WEATHER AND/OR OBSTRUCTIONS TO VISIBILITY.





USA.gov is the U.S. government's official web portal to all federal, state and local government web resources and services.